Tracking 31027 objects as of 19-Jul-2025
HD Live streaming from Space Station
objects crossing your sky now

THOR ABLESTAR DEB

Track THOR ABLESTAR DEB now!
10-day predictions


NORAD ID: 3125
Int'l Code: 1961-015HY
Perigee: 928.7 km
Apogee: 1,399.7 km
Inclination: 67.6 °
Period: 108.5 minutes
Semi major axis: 7535 km
RCS: 0.0125 m2 (small)
Launch date: June 29, 1961
Source: United States (US)
Launch site: AIR FORCE EASTERN TEST RANGE (AFETR)

Note: This is SATELLITE DEBRIS
Your satellite tracking list
STARLINK-3349
Track 1 satellite(s)




NASA's NSSDC Master Catalog

Two Line Element Set (TLE):
1 03125U 61015HY  25197.27630940  .00000054  00000-0  19633-3 0  9993
2 03125  67.5556 247.7469 0312510 301.3614 129.2446 13.27269184102943
Source of the keplerian elements: AFSPC